| time (UTC) | temp F | wind direction | speed MPH | gust MPH | rain 1hr in | rain 24hr in | rain mn in | humidity % | barometer mb |
| 20260507134438 | 51 | 339 | 1.0 | 2.0 | 0.00 | 0.00 | 0.00 | 79 | 1022.3 |
| 20260507133934 | 51 | 340 | 1.0 | 1.0 | 0.00 | 0.00 | 0.00 | 79 | 1022.4 |
| 20260507133431 | 51 | 4 | 2.0 | 3.0 | 0.00 | 0.00 | 0.00 | 78 | 1022.1 |
| 20260507132930 | 51 | 339 | 0.0 | 0.0 | 0.00 | 0.00 | 0.00 | 79 | 1022.1 |
| 20260507132425 | 51 | 342 | 1.0 | 1.0 | 0.00 | 0.00 | 0.00 | 79 | 1022.3 |
| 20260507131922 | 51 | 338 | 1.0 | 1.0 | 0.00 | 0.00 | 0.00 | 79 | 1022.2 |
| 20260507131419 | 51 | 342 | 0.0 | 0.0 | 0.00 | 0.00 | 0.00 | 79 | 1022.3 |
| 20260507130916 | 51 | 338 | 2.0 | 3.0 | 0.00 | 0.00 | 0.00 | 78 | 1022.4 |
| 20260507130413 | 51 | 335 | 1.0 | 1.0 | 0.00 | 0.00 | 0.00 | 79 | 1022.4 |
| 20260507125912 | 51 | 340 | 0.0 | 0.0 | 0.00 | 0.00 | 0.00 | 79 | 1022.3 |
| 20260507125409 | 51 | 335 | 1.0 | 1.0 | 0.00 | 0.00 | 0.00 | 79 | 1022.5 |
| 20260507124906 | 51 | 340 | 0.0 | 1.0 | 0.00 | 0.00 | 0.00 | 79 | 1022.3 |
| 20260507124402 | 51 | 344 | 3.0 | 3.0 | 0.00 | 0.00 | 0.00 | 79 | 1022.1 |
| 20260507123901 | 51 | 313 | 0.0 | 2.0 | 0.00 | 0.00 | 0.00 | 79 | 1022.2 |
| 20260507123357 | 51 | 344 | 1.0 | 1.0 | 0.00 | 0.00 | 0.00 | 79 | 1022.0 |
| 20260507122854 | 51 | 328 | 1.0 | 2.0 | 0.00 | 0.00 | 0.00 | 79 | 1022.2 |
| 20260507122349 | 51 | 341 | 0.0 | 1.0 | 0.00 | 0.00 | 0.00 | 79 | 1022.4 |
| 20260507121845 | 51 | 335 | 1.0 | 2.0 | 0.00 | 0.00 | 0.00 | 79 | 1022.2 |
| 20260507121341 | 51 | 336 | 1.0 | 1.0 | 0.00 | 0.00 | 0.00 | 79 | 1022.3 |
| 20260507120838 | 51 | 344 | 2.0 | 2.0 | 0.00 | 0.00 | 0.00 | 78 | 1022.3 |
| 20260507120334 | 51 | 7 | 1.0 | 2.0 | 0.00 | 0.00 | 0.00 | 78 | 1022.7 |
| 20260507115831 | 51 | 340 | 1.0 | 1.0 | 0.00 | 0.00 | 0.00 | 78 | 1022.3 |
| 20260507115326 | 52 | 339 | 1.0 | 2.0 | 0.00 | 0.00 | 0.00 | 78 | 1022.5 |
| 20260507114822 | 52 | 327 | 2.0 | 2.0 | 0.00 | 0.00 | 0.00 | 78 | 1022.5 |
| 20260507114320 | 52 | 342 | 0.0 | 1.0 | 0.00 | 0.00 | 0.00 | 78 | 1022.5 |
| 20260507113817 | 52 | 327 | 0.0 | 0.0 | 0.00 | 0.00 | 0.00 | 78 | 1022.5 |
| 20260507113314 | 52 | 14 | 3.0 | 5.0 | 0.00 | 0.00 | 0.00 | 78 | 1022.4 |
| 20260507112812 | 52 | 337 | 1.0 | 1.0 | 0.00 | 0.00 | 0.00 | 78 | 1022.5 |
| 20260507112308 | 52 | 333 | 2.0 | 3.0 | 0.00 | 0.00 | 0.00 | 78 | 1022.5 |
| 20260507111806 | 52 | 342 | 1.0 | 1.0 | 0.00 | 0.00 | 0.00 | 78 | 1022.6 |
| 20260507111302 | 52 | 345 | 2.0 | 2.0 | 0.00 | 0.00 | 0.00 | 79 | 1022.5 |
| 20260507110758 | 52 | 339 | 1.0 | 1.0 | 0.00 | 0.00 | 0.00 | 78 | 1022.6 |
| 20260507110255 | 52 | 346 | 1.0 | 2.0 | 0.00 | 0.00 | 0.00 | 78 | 1022.4 |
| 20260507105752 | 52 | 337 | 2.0 | 2.0 | 0.00 | 0.00 | 0.00 | 78 | 1022.7 |
| 20260507105248 | 52 | 334 | 1.0 | 1.0 | 0.00 | 0.00 | 0.00 | 78 | 1022.7 |
| 20260507104746 | 52 | 350 | 4.0 | 6.0 | 0.00 | 0.00 | 0.00 | 78 | 1022.8 |
| 20260507104242 | 52 | 312 | 3.0 | 6.0 | 0.00 | 0.00 | 0.00 | 78 | 1022.5 |
| 20260507103738 | 53 | 334 | 3.0 | 5.0 | 0.00 | 0.00 | 0.00 | 78 | 1022.5 |
| 20260507103234 | 53 | 340 | 2.0 | 3.0 | 0.00 | 0.00 | 0.00 | 79 | 1022.5 |
| 20260507102731 | 53 | 353 | 5.0 | 7.0 | 0.00 | 0.00 | 0.00 | 78 | 1022.5 |
| 20260507102228 | 53 | 355 | 0.0 | 2.0 | 0.00 | 0.00 | 0.00 | 79 | 1022.5 |
| 20260507101724 | 53 | 334 | 0.0 | 0.0 | 0.00 | 0.00 | 0.00 | 79 | 1022.7 |
| 20260507101219 | 53 | 353 | 1.0 | 2.0 | 0.00 | 0.00 | 0.00 | 78 | 1022.7 |
| 20260507100716 | 53 | 336 | 1.0 | 1.0 | 0.00 | 0.00 | 0.00 | 78 | 1022.6 |
| 20260507100215 | 53 | 338 | 6.0 | 8.0 | 0.00 | 0.00 | 0.00 | 79 | 1022.8 |
| 20260507095713 | 53 | 348 | 2.0 | 3.0 | 0.00 | 0.00 | 0.00 | 79 | 1022.8 |
| 20260507095209 | 53 | 339 | 0.0 | 0.0 | 0.00 | 0.00 | 0.00 | 79 | 1022.8 |
| 20260507094705 | 53 | 344 | 1.0 | 1.0 | 0.00 | 0.00 | 0.00 | 79 | 1022.7 |
| 20260507094202 | 53 | 341 | 1.0 | 1.0 | 0.00 | 0.00 | 0.00 | 79 | 1023.0 |
| 20260507093659 | 53 | 359 | 3.0 | 3.0 | 0.00 | 0.00 | 0.00 | 79 | 1023.1 |
| 20260507093158 | 53 | 350 | 3.0 | 3.0 | 0.00 | 0.00 | 0.00 | 79 | 1023.0 |
| 20260507092655 | 53 | 338 | 1.0 | 2.0 | 0.00 | 0.00 | 0.00 | 80 | 1023.3 |
| 20260507092151 | 53 | 335 | 0.0 | 0.0 | 0.00 | 0.00 | 0.00 | 79 | 1023.1 |
| 20260507091648 | 54 | 334 | 0.0 | 0.0 | 0.00 | 0.00 | 0.00 | 79 | 1023.1 |
| 20260507091144 | 54 | 344 | 1.0 | 1.0 | 0.00 | 0.00 | 0.00 | 79 | 1023.1 |
| 20260507090639 | 54 | 336 | 0.0 | 1.0 | 0.00 | 0.00 | 0.00 | 79 | 1023.1 |
| 20260507090137 | 54 | 335 | 0.0 | 0.0 | 0.00 | 0.00 | 0.00 | 79 | 1023.1 |
| 20260507085634 | 54 | 350 | 2.0 | 3.0 | 0.00 | 0.00 | 0.00 | 79 | 1022.8 |
| 20260507085131 | 54 | 333 | 0.0 | 1.0 | 0.00 | 0.00 | 0.00 | 79 | 1023.1 |
| 20260507084627 | 54 | 356 | 2.0 | 2.0 | 0.00 | 0.00 | 0.00 | 79 | 1023.0 |
| 20260507084124 | 54 | 335 | 0.0 | 0.0 | 0.00 | 0.00 | 0.00 | 79 | 1023.2 |
| 20260507083621 | 54 | 350 | 5.0 | 6.0 | 0.00 | 0.00 | 0.00 | 79 | 1023.0 |
| 20260507083118 | 54 | 338 | 0.0 | 0.0 | 0.00 | 0.00 | 0.00 | 80 | 1023.4 |
| 20260507082614 | 54 | 334 | 2.0 | 2.0 | 0.00 | 0.00 | 0.00 | 80 | 1023.4 |
| 20260507082110 | 54 | 341 | 0.0 | 1.0 | 0.00 | 0.00 | 0.00 | 80 | 1023.2 |
| 20260507081607 | 54 | 336 | 0.0 | 0.0 | 0.00 | 0.00 | 0.00 | 81 | 1023.3 |
| 20260507081104 | 54 | 333 | 0.0 | 0.0 | 0.00 | 0.00 | 0.00 | 81 | 1023.0 |
| 20260507080600 | 54 | 339 | 0.0 | 0.0 | 0.00 | 0.00 | 0.00 | 81 | 1023.2 |
| 20260507080056 | 54 | 341 | 2.0 | 2.0 | 0.00 | 0.00 | 0.00 | 81 | 1023.3 |
| 20260507075551 | 54 | 336 | 0.0 | 0.0 | 0.00 | 0.00 | 0.00 | 81 | 1023.1 |
| 20260507075048 | 54 | 336 | 0.0 | 0.0 | 0.00 | 0.00 | 0.00 | 81 | 1023.2 |
| 20260507074545 | 54 | 348 | 1.0 | 1.0 | 0.00 | 0.00 | 0.00 | 81 | 1023.2 |
| 20260507074043 | 54 | 344 | 0.0 | 0.0 | 0.00 | 0.00 | 0.00 | 81 | 1023.3 |
| 20260507073539 | 54 | 341 | 2.0 | 2.0 | 0.00 | 0.00 | 0.00 | 81 | 1023.0 |
| 20260507073036 | 54 | 343 | 1.0 | 1.0 | 0.00 | 0.00 | 0.00 | 81 | 1023.0 |
| 20260507072533 | 54 | 1 | 2.0 | 3.0 | 0.00 | 0.00 | 0.00 | 80 | 1023.0 |
| 20260507072030 | 54 | 0 | 1.0 | 2.0 | 0.00 | 0.00 | 0.00 | 80 | 1023.1 |
| 20260507071527 | 54 | 6 | 2.0 | 2.0 | 0.00 | 0.00 | 0.00 | 80 | 1022.8 |
| 20260507071024 | 54 | 336 | 0.0 | 1.0 | 0.00 | 0.00 | 0.00 | 80 | 1022.9 |
| 20260507070521 | 54 | 337 | 3.0 | 5.0 | 0.00 | 0.00 | 0.00 | 80 | 1023.0 |
| 20260507070018 | 54 | 358 | 1.0 | 2.0 | 0.00 | 0.00 | 0.00 | 80 | 1022.9 |
| 20260507065514 | 54 | 8 | 4.0 | 5.0 | 0.00 | 0.00 | 0.00 | 80 | 1023.0 |
| 20260507065012 | 54 | 344 | 0.0 | 1.0 | 0.00 | 0.00 | 0.00 | 80 | 1023.0 |
| 20260507064510 | 54 | 359 | 1.0 | 2.0 | 0.00 | 0.00 | 0.00 | 80 | 1023.1 |
| 20260507064008 | 54 | 346 | 0.0 | 0.0 | 0.00 | 0.00 | 0.00 | 80 | 1023.0 |
| 20260507063504 | 55 | 342 | 0.0 | 0.0 | 0.00 | 0.00 | 0.00 | 80 | 1023.0 |
| 20260507063002 | 55 | 339 | 3.0 | 3.0 | 0.00 | 0.00 | 0.00 | 80 | 1023.2 |
| 20260507062458 | 55 | 333 | 0.0 | 0.0 | 0.00 | 0.00 | 0.00 | 80 | 1023.1 |
| 20260507061956 | 55 | 47 | 3.0 | 5.0 | 0.00 | 0.00 | 0.00 | 80 | 1023.2 |
| 20260507061454 | 55 | 334 | 1.0 | 2.0 | 0.00 | 0.00 | 0.00 | 80 | 1023.2 |
| 20260507060952 | 55 | 3 | 2.0 | 2.0 | 0.00 | 0.00 | 0.00 | 80 | 1023.0 |
| 20260507060448 | 55 | 316 | 5.0 | 6.0 | 0.00 | 0.00 | 0.00 | 80 | 1023.1 |
| 20260507055945 | 55 | 0 | 1.0 | 1.0 | 0.00 | 0.00 | 0.00 | 80 | 1022.9 |
| 20260507055440 | 55 | 5 | 2.0 | 7.0 | 0.00 | 0.00 | 0.00 | 79 | 1023.0 |
| 20260507054937 | 55 | 301 | 2.0 | 2.0 | 0.00 | 0.00 | 0.00 | 79 | 1023.1 |
| 20260507054433 | 55 | 335 | 3.0 | 5.0 | 0.00 | 0.00 | 0.00 | 79 | 1023.0 |
| 20260507053931 | 55 | 6 | 1.0 | 2.0 | 0.00 | 0.00 | 0.00 | 79 | 1022.9 |
| 20260507053428 | 55 | 335 | 0.0 | 1.0 | 0.00 | 0.00 | 0.00 | 79 | 1022.9 |
| 20260507052927 | 55 | 328 | 2.0 | 2.0 | 0.00 | 0.00 | 0.00 | 78 | 1022.7 |
| 20260507052424 | 55 | 341 | 5.0 | 7.0 | 0.00 | 0.00 | 0.00 | 78 | 1022.7 |
| 20260507051920 | 56 | 328 | 2.0 | 2.0 | 0.00 | 0.00 | 0.00 | 78 | 1022.8 |
| 20260507051418 | 56 | 341 | 3.0 | 5.0 | 0.00 | 0.00 | 0.00 | 78 | 1023.1 |
| 20260507050915 | 56 | 335 | 2.0 | 3.0 | 0.00 | 0.00 | 0.00 | 78 | 1022.9 |
| 20260507050412 | 56 | 27 | 1.0 | 2.0 | 0.00 | 0.00 | 0.00 | 78 | 1023.0 |
| 20260507045908 | 56 | 331 | 1.0 | 1.0 | 0.00 | 0.00 | 0.00 | 78 | 1023.0 |
| 20260507045405 | 57 | 335 | 1.0 | 2.0 | 0.00 | 0.00 | 0.00 | 78 | 1022.8 |
| 20260507044902 | 57 | 332 | 2.0 | 2.0 | 0.00 | 0.00 | 0.00 | 78 | 1022.8 |
| 20260507044359 | 57 | 343 | 1.0 | 1.0 | 0.00 | 0.00 | 0.00 | 78 | 1022.8 |
| 20260507043855 | 57 | 349 | 0.0 | 1.0 | 0.00 | 0.00 | 0.00 | 78 | 1022.7 |
| 20260507043351 | 57 | 325 | 2.0 | 3.0 | 0.00 | 0.00 | 0.00 | 78 | 1022.6 |
| 20260507042848 | 57 | 333 | 4.0 | 5.0 | 0.00 | 0.00 | 0.00 | 78 | 1022.8 |
| 20260507042344 | 58 | 220 | 3.0 | 5.0 | 0.00 | 0.00 | 0.00 | 78 | 1022.9 |
| 20260507041840 | 58 | 332 | 1.0 | 1.0 | 0.00 | 0.00 | 0.00 | 78 | 1022.5 |
| 20260507041337 | 58 | 327 | 1.0 | 2.0 | 0.00 | 0.00 | 0.00 | 78 | 1022.7 |
| 20260507040835 | 58 | 4 | 2.0 | 3.0 | 0.00 | 0.00 | 0.00 | 78 | 1022.5 |
| 20260507040330 | 58 | 10 | 3.0 | 3.0 | 0.00 | 0.00 | 0.00 | 78 | 1022.6 |
| 20260507035826 | 58 | 5 | 3.0 | 3.0 | 0.00 | 0.00 | 0.00 | 78 | 1022.3 |
| 20260507035322 | 59 | 336 | 1.0 | 1.0 | 0.00 | 0.00 | 0.00 | 78 | 1022.4 |
| 20260507034820 | 59 | 328 | 2.0 | 3.0 | 0.00 | 0.00 | 0.00 | 78 | 1022.2 |
| 20260507034316 | 59 | 327 | 2.0 | 5.0 | 0.00 | 0.00 | 0.00 | 78 | 1022.0 |
| 20260507033815 | 59 | 333 | 2.0 | 2.0 | 0.00 | 0.00 | 0.00 | 77 | 1022.0 |
| 20260507033312 | 59 | 342 | 4.0 | 5.0 | 0.00 | 0.00 | 0.00 | 77 | 1022.2 |
| 20260507032809 | 59 | 339 | 2.0 | 3.0 | 0.00 | 0.00 | 0.00 | 77 | 1021.9 |
| 20260507032306 | 59 | 354 | 1.0 | 1.0 | 0.00 | 0.00 | 0.00 | 77 | 1022.1 |
| 20260507031802 | 59 | 341 | 3.0 | 3.0 | 0.00 | 0.00 | 0.00 | 77 | 1021.8 |
| 20260507031259 | 60 | 343 | 1.0 | 2.0 | 0.00 | 0.00 | 0.00 | 77 | 1021.9 |
| 20260507030755 | 60 | 331 | 1.0 | 2.0 | 0.00 | 0.00 | 0.00 | 77 | 1021.6 |
| 20260507030253 | 59 | 345 | 2.0 | 2.0 | 0.00 | 0.00 | 0.00 | 77 | 1021.6 |
| 20260507025750 | 60 | 306 | 5.0 | 8.0 | 0.00 | 0.00 | 0.00 | 77 | 1021.7 |
| 20260507025247 | 60 | 2 | 1.0 | 2.0 | 0.00 | 0.00 | 0.00 | 76 | 1021.6 |
| 20260507024745 | 60 | 336 | 1.0 | 1.0 | 0.00 | 0.00 | 0.00 | 76 | 1021.4 |
| 20260507024242 | 60 | 352 | 2.0 | 2.0 | 0.00 | 0.00 | 0.00 | 75 | 1021.5 |
| 20260507023737 | 61 | 45 | 3.0 | 5.0 | 0.00 | 0.00 | 0.00 | 75 | 1021.7 |
| 20260507023235 | 61 | 16 | 3.0 | 3.0 | 0.00 | 0.00 | 0.00 | 74 | 1021.5 |
| 20260507022732 | 62 | 350 | 2.0 | 2.0 | 0.00 | 0.00 | 0.00 | 74 | 1021.4 |
| 20260507022228 | 62 | 327 | 5.0 | 7.0 | 0.00 | 0.00 | 0.00 | 73 | 1021.3 |
| 20260507021724 | 63 | 0 | 5.0 | 6.0 | 0.00 | 0.00 | 0.00 | 72 | 1021.7 |
| 20260507021220 | 63 | 351 | 3.0 | 3.0 | 0.00 | 0.00 | 0.00 | 71 | 1021.7 |
| 20260507020718 | 64 | 309 | 5.0 | 9.0 | 0.00 | 0.00 | 0.00 | 70 | 1021.8 |
| 20260507020214 | 64 | 324 | 4.0 | 6.0 | 0.00 | 0.00 | 0.00 | 70 | 1021.7 |
| 20260507015712 | 64 | 337 | 3.0 | 3.0 | 0.00 | 0.00 | 0.00 | 70 | 1021.5 |
| 20260507015209 | 64 | 5 | 1.0 | 3.0 | 0.00 | 0.00 | 0.00 | 69 | 1021.6 |
| 20260507014706 | 64 | 321 | 4.0 | 6.0 | 0.00 | 0.00 | 0.00 | 71 | 1021.8 |
| 20260507014202 | 65 | 2 | 7.0 | 9.0 | 0.00 | 0.00 | 0.00 | 70 | 1021.7 |
| 20260507013659 | 65 | 342 | 3.0 | 6.0 | 0.00 | 0.00 | 0.00 | 70 | 1021.5 |
| 20260507013156 | 65 | 359 | 6.0 | 9.0 | 0.00 | 0.00 | 0.00 | 70 | 1021.6 |
| 20260507012654 | 66 | 350 | 3.0 | 5.0 | 0.00 | 0.00 | 0.00 | 71 | 1021.6 |
| 20260507012149 | 66 | 323 | 3.0 | 3.0 | 0.00 | 0.00 | 0.00 | 71 | 1021.6 |
| 20260507011647 | 66 | 325 | 2.0 | 2.0 | 0.00 | 0.00 | 0.00 | 72 | 1021.5 |
| 20260507011143 | 67 | 18 | 5.0 | 6.0 | 0.00 | 0.00 | 0.00 | 70 | 1021.6 |
| 20260507010638 | 67 | 347 | 5.0 | 6.0 | 0.00 | 0.00 | 0.00 | 70 | 1021.6 |
| 20260507010134 | 67 | 314 | 1.0 | 1.0 | 0.00 | 0.00 | 0.00 | 70 | 1021.6 |
| 20260507005631 | 67 | 349 | 1.0 | 2.0 | 0.00 | 0.00 | 0.00 | 69 | 1021.4 |
| 20260507005127 | 69 | 320 | 2.0 | 3.0 | 0.00 | 0.00 | 0.00 | 67 | 1021.6 |
| 20260507004625 | 67 | 58 | 2.0 | 2.0 | 0.00 | 0.00 | 0.00 | 69 | 1021.7 |
| 20260507004122 | 67 | 342 | 4.0 | 5.0 | 0.00 | 0.00 | 0.00 | 69 | 1021.6 |
| 20260507003618 | 67 | 335 | 0.0 | 1.0 | 0.00 | 0.00 | 0.00 | 69 | 1021.4 |
| 20260507003113 | 68 | 349 | 0.0 | 0.0 | 0.00 | 0.00 | 0.00 | 67 | 1021.6 |
| 20260507002610 | 67 | 341 | 1.0 | 2.0 | 0.00 | 0.00 | 0.00 | 67 | 1021.6 |
| 20260507002105 | 67 | 339 | 3.0 | 3.0 | 0.00 | 0.00 | 0.00 | 67 | 1021.4 |
| 20260507001603 | 69 | 327 | 1.0 | 2.0 | 0.00 | 0.00 | 0.00 | 65 | 1021.6 |
| 20260507001100 | 69 | 345 | 1.0 | 1.0 | 0.00 | 0.00 | 0.00 | 66 | 1021.5 |
| 20260507000556 | 68 | 5 | 1.0 | 2.0 | 0.00 | 0.00 | 0.00 | 66 | 1021.6 |
| 20260507000052 | 68 | 349 | 2.0 | 3.0 | 0.00 | 0.00 | 0.00 | 66 | 1021.5 |
| 20260506235549 | 69 | 355 | 6.0 | 7.0 | 0.00 | 0.00 | 0.00 | 64 | 1021.4 |
| 20260506235044 | 70 | 345 | 2.0 | 2.0 | 0.00 | 0.00 | 0.00 | 62 | 1021.3 |
| 20260506234542 | 69 | 342 | 0.0 | 1.0 | 0.00 | 0.00 | 0.00 | 64 | 1021.4 |
| 20260506234039 | 72 | 316 | 1.0 | 2.0 | 0.00 | 0.00 | 0.00 | 59 | 1021.3 |
| 20260506233536 | 73 | 325 | 0.0 | 1.0 | 0.00 | 0.00 | 0.00 | 59 | 1021.7 |
| 20260506233032 | 72 | 339 | 0.0 | 0.0 | 0.00 | 0.00 | 0.00 | 57 | 1021.7 |
| 20260506232529 | 72 | 306 | 1.0 | 1.0 | 0.00 | 0.00 | 0.00 | 59 | 1021.6 |
| 20260506232019 | 73 | 338 | 1.0 | 1.0 | 0.00 | 0.00 | 0.00 | 58 | 1021.4 |
| 20260506231517 | 72 | 329 | 2.0 | 2.0 | 0.00 | 0.00 | 0.00 | 59 | 1021.4 |
| 20260506231015 | 73 | 318 | 1.0 | 1.0 | 0.00 | 0.00 | 0.00 | 56 | 1021.7 |
| 20260506230510 | 72 | 334 | 0.0 | 0.0 | 0.00 | 0.00 | 0.00 | 58 | 1021.8 |
| 20260506230008 | 73 | 289 | 1.0 | 2.0 | 0.00 | 0.00 | 0.00 | 58 | 1021.7 |
| 20260506225504 | 71 | 326 | 2.0 | 2.0 | 0.00 | 0.00 | 0.00 | 59 | 1021.8 |
| 20260506225001 | 71 | 320 | 2.0 | 6.0 | 0.00 | 0.00 | 0.00 | 60 | 1021.8 |
| 20260506224458 | 72 | 335 | 0.0 | 1.0 | 0.00 | 0.00 | 0.00 | 59 | 1021.9 |
| 20260506223954 | 72 | 335 | 0.0 | 0.0 | 0.00 | 0.00 | 0.00 | 60 | 1022.0 |
| 20260506223450 | 70 | 336 | 0.0 | 0.0 | 0.00 | 0.00 | 0.00 | 63 | 1022.1 |
| 20260506222948 | 68 | 352 | 0.0 | 1.0 | 0.00 | 0.00 | 0.00 | 65 | 1022.1 |
| 20260506222444 | 68 | 337 | 1.0 | 2.0 | 0.00 | 0.00 | 0.00 | 66 | 1022.1 |
| 20260506221941 | 70 | 336 | 0.0 | 0.0 | 0.00 | 0.00 | 0.00 | 64 | 1022.0 |
| 20260506221438 | 69 | 337 | 0.0 | 0.0 | 0.00 | 0.00 | 0.00 | 65 | 1022.2 |
| 20260506220936 | 69 | 345 | 3.0 | 3.0 | 0.00 | 0.00 | 0.00 | 66 | 1022.2 |
| 20260506220431 | 70 | 326 | 1.0 | 1.0 | 0.00 | 0.00 | 0.00 | 65 | 1022.1 |
| 20260506215928 | 67 | 330 | 2.0 | 2.0 | 0.00 | 0.00 | 0.00 | 69 | 1022.2 |
| 20260506215424 | 67 | 241 | 2.0 | 2.0 | 0.00 | 0.00 | 0.00 | 69 | 1022.2 |
| 20260506214920 | 67 | 52 | 1.0 | 2.0 | 0.00 | 0.00 | 0.00 | 69 | 1022.2 |
| 20260506214417 | 65 | 335 | 2.0 | 2.0 | 0.00 | 0.00 | 0.00 | 72 | 1022.1 |
| 20260506213915 | 67 | 351 | 4.0 | 5.0 | 0.00 | 0.00 | 0.00 | 69 | 1022.3 |
| 20260506213412 | 68 | 347 | 1.0 | 1.0 | 0.00 | 0.00 | 0.00 | 68 | 1022.5 |
| 20260506212909 | 67 | 359 | 1.0 | 1.0 | 0.00 | 0.00 | 0.00 | 69 | 1022.3 |
| 20260506212405 | 65 | 338 | 1.0 | 1.0 | 0.00 | 0.00 | 0.00 | 72 | 1022.4 |
| 20260506211900 | 64 | 334 | 1.0 | 1.0 | 0.00 | 0.00 | 0.00 | 73 | 1022.5 |
| 20260506211356 | 64 | 352 | 3.0 | 3.0 | 0.00 | 0.00 | 0.00 | 73 | 1022.7 |
| 20260506210854 | 64 | 0 | 2.0 | 2.0 | 0.00 | 0.00 | 0.00 | 74 | 1022.5 |
| 20260506210350 | 65 | 319 | 2.0 | 3.0 | 0.00 | 0.00 | 0.00 | 73 | 1022.5 |
| 20260506205848 | 65 | 337 | 2.0 | 2.0 | 0.00 | 0.00 | 0.00 | 73 | 1022.6 |
| 20260506205343 | 63 | 346 | 1.0 | 2.0 | 0.00 | 0.00 | 0.00 | 76 | 1022.4 |
| 20260506204840 | 63 | 342 | 1.0 | 1.0 | 0.00 | 0.00 | 0.00 | 76 | 1022.5 |
| 20260506204338 | 65 | 344 | 1.0 | 1.0 | 0.00 | 0.00 | 0.00 | 73 | 1022.6 |
| 20260506203835 | 65 | 357 | 2.0 | 2.0 | 0.00 | 0.00 | 0.00 | 72 | 1022.5 |
| 20260506203332 | 68 | 331 | 0.0 | 1.0 | 0.00 | 0.00 | 0.00 | 68 | 1022.6 |
| 20260506202829 | 67 | 335 | 1.0 | 1.0 | 0.00 | 0.00 | 0.00 | 69 | 1022.6 |
| 20260506202326 | 66 | 350 | 0.0 | 1.0 | 0.00 | 0.00 | 0.00 | 69 | 1022.5 |
| 20260506201822 | 66 | 333 | 0.0 | 1.0 | 0.00 | 0.00 | 0.00 | 70 | 1022.6 |
| 20260506201320 | 64 | 341 | 0.0 | 0.0 | 0.00 | 0.00 | 0.00 | 73 | 1022.6 |
| 20260506200817 | 65 | 323 | 0.0 | 1.0 | 0.00 | 0.00 | 0.00 | 72 | 1022.7 |
| 20260506200313 | 64 | 340 | 0.0 | 1.0 | 0.00 | 0.00 | 0.00 | 74 | 1022.6 |
| 20260506195809 | 63 | 335 | 0.0 | 0.0 | 0.00 | 0.00 | 0.00 | 75 | 1022.8 |
| 20260506195306 | 63 | 340 | 1.0 | 2.0 | 0.00 | 0.00 | 0.00 | 75 | 1022.7 |
| 20260506194803 | 63 | 333 | 0.0 | 0.0 | 0.00 | 0.00 | 0.00 | 76 | 1022.9 |
| 20260506194259 | 63 | 330 | 0.0 | 1.0 | 0.00 | 0.00 | 0.00 | 75 | 1023.0 |
| 20260506193758 | 64 | 336 | 0.0 | 0.0 | 0.00 | 0.00 | 0.00 | 74 | 1022.9 |
| 20260506193254 | 64 | 344 | 1.0 | 1.0 | 0.00 | 0.00 | 0.00 | 75 | 1022.9 |
| 20260506192750 | 64 | 338 | 0.0 | 1.0 | 0.00 | 0.00 | 0.00 | 75 | 1022.9 |
| 20260506192247 | 64 | 336 | 0.0 | 0.0 | 0.00 | 0.00 | 0.00 | 75 | 1022.8 |
| 20260506191744 | 63 | 331 | 0.0 | 1.0 | 0.00 | 0.00 | 0.00 | 77 | 1022.5 |
| 20260506191240 | 63 | 338 | 0.0 | 0.0 | 0.00 | 0.00 | 0.00 | 76 | 1022.7 |
| 20260506190738 | 63 | 345 | 1.0 | 1.0 | 0.00 | 0.00 | 0.00 | 76 | 1022.8 |
| 20260506190234 | 64 | 333 | 0.0 | 0.0 | 0.00 | 0.00 | 0.00 | 74 | 1022.9 |
| 20260506185731 | 63 | 335 | 0.0 | 0.0 | 0.00 | 0.00 | 0.00 | 75 | 1022.5 |
| 20260506185227 | 62 | 330 | 0.0 | 0.0 | 0.00 | 0.00 | 0.00 | 77 | 1022.7 |
| 20260506184725 | 63 | 337 | 0.0 | 0.0 | 0.00 | 0.00 | 0.00 | 76 | 1022.7 |
| 20260506184222 | 62 | 320 | 0.0 | 0.0 | 0.00 | 0.00 | 0.00 | 76 | 1022.8 |
| 20260506183719 | 62 | 331 | 1.0 | 2.0 | 0.00 | 0.00 | 0.00 | 77 | 1022.6 |
| 20260506183215 | 62 | 336 | 0.0 | 0.0 | 0.00 | 0.00 | 0.00 | 78 | 1022.5 |
| 20260506182712 | 61 | 321 | 1.0 | 1.0 | 0.00 | 0.00 | 0.00 | 80 | 1022.7 |
| 20260506182209 | 60 | 343 | 1.0 | 1.0 | 0.00 | 0.00 | 0.00 | 81 | 1022.7 |
| 20260506181707 | 59 | 334 | 1.0 | 1.0 | 0.00 | 0.00 | 0.00 | 81 | 1022.6 |
| 20260506181204 | 59 | 338 | 0.0 | 1.0 | 0.00 | 0.00 | 0.00 | 81 | 1022.7 |
| 20260506180701 | 59 | 351 | 1.0 | 1.0 | 0.00 | 0.00 | 0.00 | 81 | 1022.7 |
| 20260506180157 | 60 | 346 | 1.0 | 1.0 | 0.00 | 0.00 | 0.00 | 79 | 1022.8 |
| 20260506175654 | 61 | 331 | 0.0 | 0.0 | 0.00 | 0.00 | 0.00 | 77 | 1022.6 |
| 20260506175151 | 61 | 335 | 0.0 | 0.0 | 0.00 | 0.00 | 0.00 | 78 | 1022.6 |
| 20260506174649 | 60 | 337 | 0.0 | 0.0 | 0.00 | 0.00 | 0.00 | 79 | 1022.6 |
| 20260506174145 | 60 | 330 | 0.0 | 0.0 | 0.00 | 0.00 | 0.00 | 79 | 1022.6 |
| 20260506173643 | 61 | 352 | 1.0 | 2.0 | 0.00 | 0.00 | 0.00 | 78 | 1022.6 |
| 20260506173134 | 61 | 348 | 1.0 | 1.0 | 0.00 | 0.00 | 0.00 | 77 | 1022.7 |
| 20260506172631 | 60 | 350 | 0.0 | 1.0 | 0.00 | 0.00 | 0.00 | 78 | 1022.5 |
| 20260506172127 | 59 | 334 | 0.0 | 0.0 | 0.00 | 0.00 | 0.00 | 80 | 1022.4 |
| 20260506171625 | 59 | 347 | 1.0 | 1.0 | 0.00 | 0.00 | 0.00 | 81 | 1022.4 |
| 20260506171122 | 59 | 335 | 0.0 | 0.0 | 0.00 | 0.00 | 0.00 | 81 | 1022.5 |
| 20260506170619 | 59 | 353 | 2.0 | 2.0 | 0.00 | 0.00 | 0.00 | 81 | 1022.6 |
| 20260506170111 | 60 | 332 | 2.0 | 2.0 | 0.00 | 0.00 | 0.00 | 80 | 1022.5 |
| 20260506165610 | 60 | 357 | 1.0 | 1.0 | 0.00 | 0.00 | 0.00 | 78 | 1022.4 |
| 20260506165105 | 60 | 336 | 0.0 | 0.0 | 0.00 | 0.00 | 0.00 | 79 | 1022.5 |
| 20260506164603 | 59 | 322 | 2.0 | 3.0 | 0.00 | 0.00 | 0.00 | 80 | 1022.4 |
| 20260506164100 | 59 | 341 | 0.0 | 1.0 | 0.00 | 0.00 | 0.00 | 80 | 1022.5 |
| 20260506163555 | 59 | 348 | 0.0 | 0.0 | 0.00 | 0.00 | 0.00 | 80 | 1022.2 |
| 20260506163051 | 59 | 337 | 0.0 | 0.0 | 0.00 | 0.00 | 0.00 | 81 | 1022.4 |
| 20260506162548 | 59 | 338 | 1.0 | 2.0 | 0.00 | 0.00 | 0.00 | 79 | 1022.3 |
| 20260506162045 | 60 | 336 | 0.0 | 0.0 | 0.00 | 0.00 | 0.00 | 77 | 1022.2 |
| 20260506161542 | 61 | 344 | 0.0 | 1.0 | 0.00 | 0.00 | 0.00 | 76 | 1022.3 |
| 20260506161033 | 61 | 343 | 1.0 | 1.0 | 0.00 | 0.00 | 0.00 | 75 | 1022.2 |
| 20260506160531 | 62 | 328 | 2.0 | 2.0 | 0.00 | 0.00 | 0.00 | 74 | 1021.8 |
| 20260506160028 | 59 | 339 | 1.0 | 1.0 | 0.00 | 0.00 | 0.00 | 80 | 1021.8 |
| 20260506155527 | 57 | 347 | 0.0 | 0.0 | 0.00 | 0.00 | 0.00 | 83 | 1021.5 |
| 20260506153703 | 55 | 343 | 3.0 | 3.0 | 0.00 | 0.00 | 0.00 | 87 | 1022.5 |
| 20260506153201 | 55 | 33 | 3.0 | 3.0 | 0.00 | 0.00 | 0.00 | 87 | 1022.6 |
| 20260506152658 | 55 | 338 | 2.0 | 2.0 | 0.00 | 0.00 | 0.00 | 88 | 1022.6 |
| 20260506152155 | 55 | 3 | 1.0 | 1.0 | 0.00 | 0.00 | 0.00 | 88 | 1022.7 |
| 20260506151654 | 55 | 337 | 0.0 | 1.0 | 0.00 | 0.00 | 0.00 | 88 | 1022.6 |
| 20260506151150 | 55 | 339 | 1.0 | 2.0 | 0.00 | 0.00 | 0.00 | 88 | 1022.6 |
| 20260506150647 | 56 | 352 | 4.0 | 6.0 | 0.00 | 0.00 | 0.00 | 88 | 1022.4 |
| 20260506150144 | 56 | 336 | 0.0 | 1.0 | 0.00 | 0.00 | 0.00 | 88 | 1022.3 |
| 20260506145641 | 56 | 18 | 4.0 | 5.0 | 0.00 | 0.00 | 0.00 | 88 | 1022.1 |
| 20260506145137 | 56 | 331 | 1.0 | 1.0 | 0.00 | 0.00 | 0.00 | 88 | 1022.3 |
| 20260506144636 | 57 | 305 | 3.0 | 3.0 | 0.00 | 0.00 | 0.00 | 87 | 1022.1 |
| 20260506144132 | 57 | 317 | 1.0 | 2.0 | 0.00 | 0.00 | 0.00 | 87 | 1021.9 |
| 20260506143630 | 57 | 338 | 0.0 | 0.0 | 0.00 | 0.00 | 0.00 | 87 | 1021.9 |
| 20260506143127 | 57 | 344 | 3.0 | 3.0 | 0.00 | 0.00 | 0.00 | 86 | 1021.6 |
| 20260506142626 | 57 | 336 | 0.0 | 1.0 | 0.00 | 0.00 | 0.00 | 86 | 1021.6 |
| 20260506142123 | 57 | 337 | 0.0 | 0.0 | 0.00 | 0.00 | 0.00 | 87 | 1021.6 |
| 20260506141621 | 57 | 338 | 0.0 | 0.0 | 0.00 | 0.00 | 0.00 | 87 | 1021.6 |
| 20260506141119 | 57 | 347 | 1.0 | 1.0 | 0.00 | 0.00 | 0.00 | 87 | 1021.6 |
| 20260506140616 | 56 | 338 | 0.0 | 0.0 | 0.00 | 0.00 | 0.00 | 87 | 1021.8 |
| 20260506140113 | 56 | 347 | 0.0 | 1.0 | 0.00 | 0.00 | 0.00 | 87 | 1021.4 |
| 20260506135610 | 56 | 338 | 0.0 | 0.0 | 0.00 | 0.00 | 0.00 | 87 | 1021.7 |
| 20260506135106 | 56 | 340 | 1.0 | 1.0 | 0.00 | 0.00 | 0.00 | 88 | 1021.4 |